TimeCST,TemperatureF,Dew PointF,Humidity,Sea Level PressureIn,VisibilityMPH,Wind Direction,Wind SpeedMPH,Gust SpeedMPH,PrecipitationIn,Events,Conditions,WindDirDegrees,DateUTC
12:15 AM,32.0,14.0,48,30.26,10.0,Calm,Calm,-,N/A,,Clear,0,2013-01-31 06:15:00
12:35 AM,30.2,14.0,51,30.26,10.0,Calm,Calm,-,N/A,,Clear,0,2013-01-31 06:35:00
12:55 AM,30.2,14.0,51,30.26,10.0,Calm,Calm,-,N/A,,Clear,0,2013-01-31 06:55:00
1:15 AM,28.4,14.0,55,30.26,10.0,Calm,Calm,-,N/A,,Clear,0,2013-01-31 07:15:00
1:35 AM,28.4,14.0,55,30.25,10.0,Calm,Calm,-,N/A,,Clear,0,2013-01-31 07:35:00
1:55 AM,28.4,14.0,55,30.24,10.0,NNE,4.6,-,N/A,,Clear,20,2013-01-31 07:55:00
2:15 AM,28.4,14.0,55,30.24,10.0,Calm,Calm,-,N/A,,Clear,0,2013-01-31 08:15:00
2:35 AM,28.4,14.0,55,30.24,10.0,Calm,Calm,-,N/A,,Clear,0,2013-01-31 08:35:00
2:55 AM,28.4,14.0,55,30.24,10.0,Calm,Calm,-,N/A,,Clear,0,2013-01-31 08:55:00
3:15 AM,26.6,14.0,59,30.24,10.0,Calm,Calm,-,N/A,,Clear,0,2013-01-31 09:15:00
3:35 AM,26.6,14.0,59,30.24,10.0,Calm,Calm,-,N/A,,Clear,0,2013-01-31 09:35:00
3:55 AM,28.4,15.8,59,30.25,10.0,Calm,Calm,-,N/A,,Clear,0,2013-01-31 09:55:00
4:15 AM,28.4,17.6,64,30.24,10.0,Calm,Calm,-,N/A,,Clear,0,2013-01-31 10:15:00
4:35 AM,26.6,14.0,59,30.25,10.0,Calm,Calm,-,N/A,,Clear,0,2013-01-31 10:35:00
5:15 AM,26.6,14.0,59,30.24,10.0,Calm,Calm,-,N/A,,Clear,0,2013-01-31 11:15:00
5:35 AM,26.6,15.8,64,30.25,10.0,Calm,Calm,-,N/A,,Clear,0,2013-01-31 11:35:00
5:55 AM,26.6,15.8,64,30.26,10.0,Calm,Calm,-,N/A,,Clear,0,2013-01-31 11:55:00
6:15 AM,26.6,15.8,64,30.26,10.0,Calm,Calm,-,N/A,,Clear,0,2013-01-31 12:15:00
6:35 AM,24.8,14.0,64,30.26,10.0,Calm,Calm,-,N/A,,Clear,0,2013-01-31 12:35:00
6:55 AM,23.0,14.0,68,30.26,10.0,Calm,Calm,-,N/A,,Clear,0,2013-01-31 12:55:00
7:15 AM,24.8,15.8,69,30.26,10.0,Calm,Calm,-,N/A,,Clear,0,2013-01-31 13:15:00
7:35 AM,23.0,15.8,74,30.28,10.0,Calm,Calm,-,N/A,,Clear,0,2013-01-31 13:35:00
7:55 AM,24.8,14.0,64,30.28,10.0,Calm,Calm,-,N/A,,Clear,0,2013-01-31 13:55:00
8:15 AM,26.6,15.8,64,30.29,10.0,Calm,Calm,-,N/A,,Clear,0,2013-01-31 14:15:00
8:35 AM,28.4,15.8,59,30.29,10.0,Calm,Calm,-,N/A,,Clear,0,2013-01-31 14:35:00
8:55 AM,32.0,17.6,55,30.30,10.0,Calm,Calm,-,N/A,,Clear,0,2013-01-31 14:55:00
9:15 AM,37.4,19.4,48,30.30,10.0,Calm,Calm,-,N/A,,Clear,0,2013-01-31 15:15:00
9:35 AM,46.4,17.6,32,30.31,10.0,South,6.9,-,N/A,,Clear,170,2013-01-31 15:35:00
9:55 AM,50.0,15.8,26,30.31,10.0,SSW,8.1,-,N/A,,Clear,200,2013-01-31 15:55:00
10:15 AM,51.8,15.8,24,30.32,10.0,SW,10.4,-,N/A,,Clear,220,2013-01-31 16:15:00
10:35 AM,53.6,17.6,24,30.31,10.0,SSW,12.7,17.3,N/A,,Clear,200,2013-01-31 16:35:00
10:55 AM,55.4,14.0,20,30.32,10.0,SSW,12.7,19.6,N/A,,Clear,210,2013-01-31 16:55:00
11:15 AM,55.4,14.0,20,30.31,10.0,SSW,10.4,16.1,N/A,,Clear,210,2013-01-31 17:15:00
11:35 AM,57.2,14.0,18,30.31,10.0,SSW,11.5,18.4,N/A,,Clear,210,2013-01-31 17:35:00
11:55 AM,57.2,15.8,20,30.31,10.0,SSW,12.7,17.3,N/A,,Clear,210,2013-01-31 17:55:00
12:15 PM,60.8,14.0,16,30.29,10.0,SW,10.4,16.1,N/A,,Clear,220,2013-01-31 18:15:00
12:35 PM,60.8,14.0,16,30.28,10.0,SW,10.4,18.4,N/A,,Clear,220,2013-01-31 18:35:00
12:55 PM,60.8,14.0,16,30.26,10.0,SSW,10.4,16.1,N/A,,Clear,210,2013-01-31 18:55:00
1:15 PM,60.8,14.0,16,30.25,10.0,SW,9.2,17.3,N/A,,Clear,220,2013-01-31 19:15:00
1:35 PM,60.8,14.0,16,30.23,10.0,SSW,11.5,16.1,N/A,,Clear,200,2013-01-31 19:35:00
1:55 PM,62.6,15.8,16,30.23,10.0,SSW,11.5,-,N/A,,Clear,200,2013-01-31 19:55:00
2:15 PM,62.6,15.8,16,30.23,10.0,SW,5.8,-,N/A,,Clear,230,2013-01-31 20:15:00
2:35 PM,62.6,15.8,16,30.23,10.0,SSW,5.8,-,N/A,,Clear,200,2013-01-31 20:35:00
2:55 PM,62.6,15.8,16,30.22,10.0,SSW,8.1,-,N/A,,Clear,200,2013-01-31 20:55:00
3:15 PM,62.6,15.8,16,30.22,10.0,South,10.4,-,N/A,,Clear,180,2013-01-31 21:15:00
3:35 PM,62.6,15.8,16,30.22,10.0,WSW,5.8,-,N/A,,Clear,240,2013-01-31 21:35:00
3:55 PM,62.6,15.8,16,30.21,10.0,SSW,5.8,-,N/A,,Clear,210,2013-01-31 21:55:00
4:15 PM,62.6,15.8,16,30.21,10.0,SSW,8.1,-,N/A,,Clear,210,2013-01-31 22:15:00
4:35 PM,62.6,14.0,15,30.21,10.0,SW,4.6,-,N/A,,Clear,220,2013-01-31 22:35:00
4:55 PM,62.6,14.0,15,30.21,10.0,SSW,6.9,-,N/A,,Clear,210,2013-01-31 22:55:00
5:15 PM,60.8,14.0,16,30.21,10.0,SW,5.8,-,N/A,,Clear,220,2013-01-31 23:15:00
5:35 PM,60.8,14.0,16,30.23,10.0,SSW,5.8,-,N/A,,Clear,200,2013-01-31 23:35:00
5:55 PM,60.8,15.8,17,30.23,10.0,SSW,4.6,-,N/A,,Clear,200,2013-01-31 23:55:00
6:15 PM,57.2,17.6,21,30.24,10.0,SSW,3.5,-,N/A,,Clear,200,2013-02-01 00:15:00
6:35 PM,55.4,17.6,23,30.25,10.0,SSW,3.5,-,N/A,,Clear,210,2013-02-01 00:35:00
6:55 PM,53.6,17.6,24,30.26,10.0,Calm,Calm,-,N/A,,Clear,0,2013-02-01 00:55:00
7:15 PM,51.8,19.4,28,30.27,10.0,South,3.5,-,N/A,,Clear,190,2013-02-01 01:15:00
7:35 PM,53.6,17.6,24,30.27,10.0,Calm,Calm,-,N/A,,Clear,0,2013-02-01 01:35:00
7:55 PM,51.8,17.6,26,30.27,10.0,Calm,Calm,-,N/A,,Clear,0,2013-02-01 01:55:00
8:15 PM,48.2,17.6,30,30.27,10.0,Calm,Calm,-,N/A,,Clear,0,2013-02-01 02:15:00
8:35 PM,48.2,17.6,30,30.29,10.0,Calm,Calm,-,N/A,,Clear,0,2013-02-01 02:35:00
8:55 PM,46.4,19.4,34,30.29,10.0,Calm,Calm,-,N/A,,Clear,0,2013-02-01 02:55:00
9:15 PM,48.2,17.6,30,30.29,10.0,Calm,Calm,-,N/A,,Clear,0,2013-02-01 03:15:00
9:35 PM,48.2,17.6,30,30.30,10.0,Calm,Calm,-,N/A,,Clear,0,2013-02-01 03:35:00
9:55 PM,44.6,19.4,37,30.29,10.0,Calm,Calm,-,N/A,,Clear,0,2013-02-01 03:55:00
10:15 PM,44.6,21.2,39,30.30,10.0,Calm,Calm,-,N/A,,Clear,0,2013-02-01 04:15:00
10:35 PM,44.6,19.4,37,30.30,10.0,Calm,Calm,-,N/A,,Clear,0,2013-02-01 04:35:00
10:55 PM,39.2,21.2,49,30.31,10.0,Calm,Calm,-,N/A,,Clear,0,2013-02-01 04:55:00
11:15 PM,41.0,23.0,49,30.31,10.0,Calm,Calm,-,N/A,,Clear,0,2013-02-01 05:15:00
11:35 PM,39.2,21.2,49,30.31,10.0,Calm,Calm,-,N/A,,Clear,0,2013-02-01 05:35:00
11:55 PM,37.4,21.2,52,30.31,10.0,Calm,Calm,-,N/A,,Clear,0,2013-02-01 05:55:00